Location: Riverton
(43.0250°N, 108.3790°W)
Time: 13:13:16
(UTC-06:00)

FO-29 - Visible Passes

Search period start: 28 June 2017 00:00
Search period end: 08 July 2017 00:00
Orbit: 801 x 1321 km, 98.6° (Epoch: 27 June)

Date Brightness Start Highest point End Pass type
(mag) Time Alt. Az. Time Alt. Az. Time Alt. Az.
28 Jun 11.6 00:40:36 10° N 00:47:04 30° WNW 00:53:30 10° WSW visible
28 Jun 10.9 22:00:34 10° NNE 22:07:21 31° E 22:13:00 14° SSE visible
28 Jun 10.5 23:44:58 10° N 23:52:42 61° WNW 23:59:29 13° SW visible
29 Jun 12.3 01:32:18 10° NNW 01:36:10 15° NW 01:40:03 10° W visible
29 Jun 10.1 22:49:58 10° NNE 22:57:49 65° E 23:03:46 18° S visible
30 Jun 11.6 00:35:39 10° N 00:42:15 31° WNW 00:48:46 10° WSW visible
30 Jun 11.0 21:55:47 10° NNE 22:02:25 29° E 22:08:02 13° SE visible
30 Jun 10.4 23:40:04 10° N 23:47:51 65° WNW 23:54:31 14° SSW visible
01 Jul 12.3 01:27:13 10° NNW 01:31:22 16° NW 01:35:32 10° W visible
01 Jul 10.2 22:45:07 10° NNE 22:52:57 61° E 22:58:48 18° S visible
02 Jul 11.5 00:30:42 10° N 00:37:26 33° WNW 00:44:01 10° WSW visible
02 Jul 11.0 21:51:02 10° NE 21:57:29 27° E 22:03:03 12° SE visible
02 Jul 10.4 23:35:11 10° N 23:43:01 68° WNW 23:49:32 15° SSW visible
03 Jul 12.3 01:22:09 10° NNW 01:26:34 16° NW 01:30:58 10° W visible
03 Jul 10.2 22:40:17 10° NNE 22:48:04 58° E 22:53:48 18° S visible
04 Jul 11.4 00:25:46 10° N 00:32:37 34° WNW 00:39:14 10° WSW visible
04 Jul 11.1 21:46:18 10° NE 21:52:33 25° E 21:58:03 12° SE visible
04 Jul 10.3 23:30:18 10° N 23:38:10 72° WNW 23:44:32 15° SSW visible
05 Jul 12.2 01:17:08 10° NNW 01:21:47 17° NW 01:26:22 10° W visible
05 Jul 10.2 22:35:28 10° NNE 22:43:10 54° E 22:48:47 18° S visible
06 Jul 11.3 00:20:51 10° N 00:27:48 36° WNW 00:34:26 10° SW visible
06 Jul 11.2 21:41:36 10° NE 21:47:36 24° E 21:53:02 11° SE visible
06 Jul 10.2 23:25:26 10° N 23:33:18 75° WNW 23:39:30 16° SSW visible
07 Jul 12.2 01:12:08 10° NNW 01:16:59 18° NW 01:21:43 10° W visible
07 Jul 10.3 22:30:39 10° NNE 22:38:15 51° E 22:43:44 18° SSE visible
